Back to catalog

STARLINK-37576

AliveCommunicationsSSO
NORAD 69047·PAYLOAD·🇺🇸 United States

Launched May 6, 2026 from Vandenberg Space Force Base

Loading…

Next Passes (next 24 hours)

TLE

FreshSource: CelesTrak SupGP

Epoch: Sep 14, 2026, 21:19 UTC

1 69047C 26101Y   26257.88868056  .00049833  00000+0  15482-2 0  2572
2 69047  97.2849 111.5369 0001552  93.4053 290.4238 15.33387564    14

Track STARLINK-37576 in real time with AllMySat

Download on the App Store